QPF
0.00 0.00 0.00 0.00 0.00 0.00 0.00 0.00 0.00 0.00 0.00 0.00 0.00 0.00 0.00 0.00 0.00 0.00 0.00 0.00 0.00 0.00 0.00 0.00 0.00 0.00 0.00 0.00 0.00 0.00 0.00 0.00 0.00 0.00 0.00 0.00 0.00 0.00 0.00 0.00 0.00 0.00
0.00 0.00 0.00 0.00 0.00 0.00 0.00 0.00 0.00 0.00 0.00 0.00 0.00 0.00 0.00 0.00 0.00 0.00 0.00 0.00 0.00 0.00 0.00 0.00 0.00 0.00 0.00 0.00 0.00 0.00 0.00 0.00 0.00 0.00 0.00 0.00 0.00 0.00 0.00 0.00 0.00 0.00
0.01 0.00 0.00 0.00 0.00 0.00 0.00 0.00 0.00 0.00 0.00 0.00 0.00 0.00 0.00 0.00 0.00 0.00 0.00 0.00 0.00 0.00 0.00 0.00 0.00 0.00 0.00 0.00 0.00 0.00 0.00 0.00 0.00 0.00 0.00 0.00 0.00 0.00 0.00 0.00 0.00 0.00
0.01 0.00 0.00 0.00 0.00 0.00 0.00 0.00 0.00 0.00 0.00 0.00 0.00 0.00 0.00 0.00 0.00 0.00 0.00 0.00 0.00 0.00 0.00 0.00 0.00 0.00 0.00 0.00 0.00 0.00 0.00 0.00 0.00 0.00 0.00 0.00 0.00 0.00 0.00 0.00 0.00 0.00
0.02 0.02 0.00 0.00 0.00 0.00 0.00 0.00 0.00 0.00 0.00 0.00 0.00 0.00 0.00 0.00 0.00 0.00 0.00 0.00 0.00 0.00 0.00 0.00 0.00 0.00 0.00 0.00 0.00 0.00 0.00 0.00 0.00 0.00 0.00 0.00 0.00 0.00 0.00 0.00 0.00 0.00
0.01 0.02 0.02 0.00 0.01 0.00 0.00 0.00 0.00 0.00 0.00 0.00 0.00 0.00 0.00 0.00 0.00 0.00 0.00 0.00 0.00 0.00 0.00 0.00 0.00 0.00 0.00 0.00 0.00 0.00 0.00 0.00 0.00 0.00 0.00 0.00 0.00 0.00 0.00 0.00 0.00 0.00
0.03 0.03 0.02 0.01 0.01 0.00 0.00 0.00 0.00 0.00 0.00 0.00 0.00 0.00 0.00 0.00 0.00 0.00 0.00 0.00 0.00 0.00 0.00 0.00 0.00 0.00 0.00 0.00 0.00 0.00 0.00 0.00 0.00 0.00 0.00 0.00 0.00 0.00 0.00 0.00 0.00 0.00
0.02 0.01 0.00 0.01 0.03 0.01 0.00 0.01 0.01 0.00 0.00 0.00 0.00 0.00 0.00 0.00 0.00 0.00 0.00 0.00 0.00 0.00 0.00 0.00 0.00 0.00 0.00 0.00 0.00 0.00 0.00 0.00 0.00 0.00 0.00 0.00 0.00 0.00 0.00 0.00 0.00 0.00
0.56 0.31 0.21 0.06 0.07 0.03 0.03 0.04 0.00 0.00 0.00 0.00 0.00 0.00 0.00 0.00 0.00 0.00 0.00 0.00 0.00 0.00 0.00 0.00 0.00 0.00 0.00 0.00 0.00 0.00 0.00 0.00 0.00 0.00 0.00 0.00 0.00 0.00 0.00 0.00 0.00 0.00
0.25 0.34 0.22 0.13 0.03 0.04 0.09 0.08 0.06 0.01 0.01 0.01 0.00 0.00 0.00 0.00 0.00 0.00 0.00 0.00 0.00 0.00 0.00 0.00 0.00 0.00 0.00 0.00 0.00 0.00 0.00 0.00 0.00 0.00 0.00 0.00 0.00 0.00 0.00 0.00 0.00 0.00
0.04 0.02 0.01 0.02 0.04 0.07 0.20 0.11 0.03 0.01 0.01 0.00 0.00 0.01 0.00 0.00 0.00 0.00 0.00 0.00 0.00 0.00 0.00 0.00 0.00 0.00 0.00 0.00 0.00 0.00 0.00 0.00 0.00 0.00 0.00 0.00 0.00 0.00 0.00 0.00 0.00 0.00
0.00 0.00 0.00 0.01 0.02 0.04 0.02 0.02 0.01 0.00 0.03 0.01 0.02 0.00 0.00 0.00 0.00 0.00 0.00 0.00 0.01 0.01 0.00 0.00 0.00 0.00 0.00 0.00 0.00 0.00 0.01 0.00 0.00 0.00 0.00 0.00 0.00 0.00 0.00 0.00 0.00 0.00
0.00 0.00 0.00 0.00 0.00 0.00 0.00 0.02 0.02 0.01 0.02 0.02 0.01 0.00 0.01 0.01 0.00 0.00 0.00 0.00 0.00 0.00 0.00 0.00 0.00 0.00 0.00 0.00 0.00 0.00 0.00 0.01 0.01 0.01 0.01 0.01 0.00 0.00 0.00 0.00 0.00 0.00
0.01 0.00 0.00 0.01 0.00 0.00 0.00 0.00 0.00 0.00 0.02 0.03 0.00 0.00 0.01 0.02 0.05 0.02 0.01 0.00 0.00 0.00 0.00 0.00 0.00 0.00 0.00 0.01 0.12 0.09 0.01 0.00 0.01 0.02 0.01 0.01 0.02 0.00 0.00 0.00 0.00 0.00
0.00 0.00 0.00 0.00 0.00 0.00 0.00 0.00 0.00 0.00 0.00 0.00 0.00 0.00 0.00 0.00 0.00 0.02 0.13 0.07 0.02 0.00 0.01 0.01 0.05 0.06 0.04 0.04 0.02 0.04 0.01 0.00 0.00 0.01 0.01 0.02 0.01 0.00 0.00 0.00 0.01 0.01
0.00 0.00 0.01 0.00 0.00 0.02 0.02 0.01 0.03 0.01 0.00 0.00 0.00 0.02 0.01 0.02 0.04 0.10 0.13 0.04 0.09 0.12 0.11 0.09 0.09 0.14 0.03 0.01 0.00 0.01 0.01 0.02 0.02 0.01 0.01 0.01 0.01 0.02 0.01 0.00 0.00 0.00
0.00 0.00 0.00 0.01 0.01 0.03 0.03 0.01 0.01 0.02 0.01 0.00 0.00 0.00 0.01 0.06 0.09 0.05 0.04 0.23 0.38 0.49 0.44 0.14 0.13 0.04 0.06 0.03 0.03 0.03 0.03 0.03 0.02 0.01 0.00 0.00 0.00 0.01 0.01 0.00 0.00 0.01
0.01 0.01 0.01 0.05 0.05 0.07 0.06 0.06 0.03 0.01 0.01 0.01 0.02 0.06 0.03 0.01 0.07 0.36 0.26 0.41 0.26 0.16 0.15 0.14 0.12 0.23 0.17 0.05 0.04 0.03 0.03 0.02 0.02 0.02 0.01 0.01 0.00 0.00 0.01 0.00 0.01 0.01
0.03 0.02 0.01 0.02 0.11 0.14 0.12 0.07 0.03 0.01 0.08 0.05 0.07 0.08 0.11 0.04 0.06 0.06 0.02 0.16 0.32 0.38 0.18 0.19 0.23 0.13 0.07 0.07 0.06 0.04 0.03 0.02 0.02 0.03 0.03 0.02 0.02 0.02 0.01 0.01 0.01 0.01
0.03 0.03 0.03 0.05 0.07 0.08 0.06 0.12 0.07 0.02 0.02 0.03 0.03 0.04 0.11 0.12 0.15 0.23 0.09 0.11 0.23 0.24 0.34 0.22 0.10 0.07 0.05 0.07 0.08 0.07 0.06 0.05 0.04 0.03 0.03 0.02 0.02 0.02 0.02 0.01 0.01 0.02
0.08 0.07 0.06 0.13 0.08 0.12 0.13 0.13 0.14 0.13 0.05 0.06 0.09 0.08 0.19 0.30 0.19 0.09 0.12 0.14 0.23 0.19 0.14 0.09 0.12 0.10 0.08 0.08 0.08 0.07 0.06 0.05 0.05 0.02 0.05 0.03 0.01 0.02 0.02 0.02 0.03 0.03
0.03 0.03 0.06 0.06 0.08 0.12 0.08 0.24 0.13 0.07 0.07 0.15 0.15 0.13 0.09 0.08 0.19 0.09 0.07 0.05 0.05 0.06 0.09 0.10 0.15 0.11 0.07 0.08 0.10 0.11 0.09 0.12 0.16 0.17 0.09 0.13 0.12 0.05 0.04 0.06 0.15 0.18
0.03 0.04 0.03 0.05 0.04 0.04 0.09 0.13 0.12 0.11 0.07 0.15 0.15 0.16 0.29 0.28 0.18 0.11 0.09 0.11 0.17 0.12 0.09 0.05 0.06 0.09 0.12 0.11 0.16 0.18 0.22 0.28 0.22 0.12 0.11 0.18 0.19 0.18 0.18 0.12 0.10 0.09
0.01 0.02 0.02 0.02 0.03 0.02 0.03 0.05 0.03 0.04 0.08 0.11 0.15 0.21 0.07 0.17 0.13 0.07 0.13 0.11 0.12 0.18 0.14 0.10 0.10 0.10 0.08 0.20 0.19 0.14 0.11 0.20 0.14 0.07 0.13 0.11 0.13 0.14 0.09 0.11 0.07 0.05
0.00 0.00 0.01 0.01 0.02 0.02 0.02 0.03 0.03 0.03 0.03 0.19 0.31 0.28 0.22 0.14 0.05 0.06 0.15 0.13 0.11 0.08 0.05 0.05 0.06 0.12 0.11 0.08 0.11 0.17 0.16 0.12 0.14 0.22 0.23 0.15 0.06 0.08 0.30 0.19 0.15 0.15
0.00 0.00 0.00 0.00 0.00 0.01 0.02 0.02 0.00 0.01 0.01 0.01 0.02 0.05 0.06 0.12 0.12 0.08 0.06 0.06 0.09 0.09 0.08 0.14 0.11 0.09 0.08 0.06 0.05 0.07 0.12 0.14 0.14 0.12 0.09 0.11 0.12 0.07 0.12 0.15 0.19 0.18
MSLP
1012.84 1012.84 1012.92 1013.08 1013.20 1013.20 1013.28 1013.52 1013.56 1013.68 1013.88 1014.08 1014.40 1014.48 1014.52 1014.40 1014.32 1014.40 1014.48 1014.72 1015.08 1015.36 1015.52 1015.60 1015.68 1015.76 1015.80 1015.80 1015.84 1015.88 1015.88 1015.84 1015.88 1015.88 1016.00 1016.12 1016.28 1016.36 1016.56 1016.64 1016.72 1016.84
1012.68 1012.64 1012.68 1012.92 1013.16 1013.20 1013.12 1013.20 1013.48 1013.48 1013.64 1013.76 1013.92 1014.04 1014.08 1014.12 1014.16 1014.12 1014.28 1014.48 1014.76 1015.00 1015.20 1015.40 1015.56 1015.68 1015.76 1015.84 1015.84 1015.96 1016.04 1016.00 1016.08 1015.88 1016.04 1016.16 1016.20 1016.24 1016.40 1016.44 1016.56 1016.56
1012.56 1012.60 1012.76 1013.00 1013.16 1013.20 1013.08 1013.00 1013.12 1013.28 1013.44 1013.48 1013.52 1013.72 1013.92 1014.00 1014.12 1014.08 1014.08 1014.32 1014.48 1014.60 1014.88 1015.08 1015.32 1015.48 1015.56 1015.68 1015.72 1015.84 1016.04 1016.12 1016.20 1016.04 1016.04 1016.12 1016.12 1016.28 1016.32 1016.36 1016.44 1016.52
1012.56 1012.48 1012.52 1012.60 1012.64 1012.84 1012.72 1012.76 1012.88 1013.00 1013.12 1013.36 1013.48 1013.48 1013.64 1013.80 1013.88 1013.92 1014.00 1014.08 1014.36 1014.56 1014.72 1014.92 1015.08 1015.24 1015.36 1015.44 1015.52 1015.68 1015.84 1015.96 1016.00 1016.00 1016.08 1016.04 1016.04 1016.08 1016.16 1016.24 1016.32 1016.40
1012.48 1012.48 1012.40 1012.36 1012.28 1012.40 1012.52 1012.68 1012.72 1012.84 1012.96 1013.08 1013.12 1013.20 1013.40 1013.60 1013.76 1013.80 1013.84 1013.96 1014.12 1014.36 1014.52 1014.68 1014.76 1014.96 1015.12 1015.24 1015.32 1015.52 1015.68 1015.88 1015.88 1015.88 1016.00 1016.12 1016.04 1016.08 1016.08 1016.12 1016.24 1016.32
1012.24 1012.20 1012.20 1012.20 1012.12 1012.20 1012.40 1012.48 1012.36 1012.44 1012.68 1012.88 1012.96 1012.92 1013.08 1013.20 1013.44 1013.56 1013.68 1013.80 1013.92 1014.08 1014.24 1014.32 1014.44 1014.56 1014.72 1014.88 1015.08 1015.28 1015.44 1015.64 1015.72 1015.80 1015.88 1015.96 1016.00 1015.96 1015.96 1015.96 1016.00 1016.08
1012.12 1011.80 1011.80 1011.84 1011.88 1011.92 1012.08 1012.08 1012.16 1012.16 1012.24 1012.40 1012.48 1012.72 1012.80 1013.00 1013.16 1013.28 1013.40 1013.56 1013.72 1013.84 1013.96 1014.12 1014.24 1014.32 1014.36 1014.52 1014.76 1015.00 1015.08 1015.28 1015.40 1015.48 1015.64 1015.68 1015.76 1015.80 1015.72 1015.72 1015.76 1015.80
1011.92 1011.44 1011.44 1011.52 1011.76 1011.80 1011.88 1011.92 1012.00 1012.00 1012.00 1012.12 1012.40 1012.48 1012.56 1012.80 1012.96 1013.04 1013.12 1013.28 1013.44 1013.56 1013.64 1013.68 1013.80 1013.92 1014.04 1014.20 1014.44 1014.64 1014.84 1014.92 1015.00 1015.08 1015.20 1015.24 1015.28 1015.52 1015.52 1015.52 1015.52 1015.60
1012.12 1011.88 1011.84 1011.96 1012.08 1011.88 1011.96 1011.96 1012.00 1011.96 1011.96 1012.28 1012.40 1012.48 1012.48 1012.60 1012.68 1012.68 1012.76 1012.92 1013.12 1013.24 1013.44 1013.56 1013.56 1013.60 1013.68 1013.84 1014.04 1014.20 1014.40 1014.52 1014.56 1014.68 1014.80 1014.92 1015.00 1015.04 1015.04 1015.04 1015.20 1015.32
1012.40 1012.04 1011.96 1012.04 1011.92 1011.92 1012.08 1012.12 1012.16 1012.28 1012.24 1012.40 1012.40 1012.40 1012.48 1012.44 1012.40 1012.40 1012.48 1012.64 1012.80 1012.96 1013.08 1013.20 1013.32 1013.40 1013.44 1013.48 1013.64 1013.80 1014.00 1014.12 1014.20 1014.28 1014.36 1014.44 1014.56 1014.60 1014.52 1014.56 1014.64 1014.84
1011.76 1011.56 1011.64 1011.88 1012.12 1012.12 1012.20 1012.24 1012.28 1012.36 1012.40 1012.48 1012.48 1012.52 1012.48 1012.44 1012.40 1012.32 1012.44 1012.56 1012.80 1012.88 1012.88 1012.88 1012.92 1013.00 1013.12 1013.20 1013.28 1013.36 1013.48 1013.64 1013.76 1013.84 1013.96 1014.00 1014.04 1014.08 1014.08 1014.12 1014.16 1014.28
1011.24 1011.44 1011.48 1011.60 1011.80 1011.96 1012.16 1012.28 1012.40 1012.44 1012.44 1012.44 1012.44 1012.56 1012.44 1012.48 1012.60 1012.48 1012.44 1012.60 1012.60 1012.80 1012.68 1012.40 1012.36 1012.44 1012.56 1012.72 1012.88 1013.04 1013.20 1013.32 1013.44 1013.56 1013.60 1013.64 1013.68 1013.68 1013.68 1013.68 1013.80 1013.80
1010.96 1011.08 1011.24 1011.44 1011.60 1011.72 1011.84 1012.04 1012.28 1012.36 1012.44 1012.44 1012.32 1012.36 1012.48 1012.52 1012.60 1012.52 1012.36 1012.36 1012.40 1012.48 1012.52 1012.24 1012.08 1012.08 1012.20 1012.36 1012.48 1012.68 1012.88 1013.00 1013.16 1013.24 1013.28 1013.40 1013.48 1013.52 1013.48 1013.56 1013.48 1013.40
1010.92 1010.84 1010.96 1011.24 1011.48 1011.60 1011.72 1011.84 1011.96 1012.20 1012.28 1012.32 1012.28 1012.32 1012.36 1012.40 1012.60 1012.48 1012.36 1012.52 1012.44 1012.36 1012.28 1012.12 1012.08 1012.36 1012.60 1012.80 1013.16 1013.52 1013.32 1012.84 1012.68 1012.84 1012.96 1013.04 1013.16 1013.20 1013.24 1013.28 1013.32 1013.36
1010.84 1010.80 1010.84 1011.08 1011.32 1011.60 1011.92 1012.04 1012.08 1012.00 1011.96 1011.96 1012.08 1012.16 1012.24 1012.24 1012.12 1012.20 1012.72 1013.00 1012.88 1012.72 1012.60 1012.52 1012.56 1012.68 1012.64 1012.96 1013.40 1013.60 1013.56 1013.20 1012.76 1012.60 1012.64 1012.72 1012.80 1012.84 1012.88 1012.96 1013.04 1013.00
1010.76 1010.76 1010.96 1011.12 1011.40 1011.68 1012.00 1012.08 1012.20 1012.20 1012.04 1012.08 1012.08 1012.28 1012.36 1012.16 1012.12 1012.32 1012.64 1012.76 1012.76 1012.84 1012.88 1012.84 1012.88 1012.76 1012.80 1013.04 1013.44 1013.76 1013.80 1013.60 1013.16 1012.76 1012.44 1012.36 1012.44 1012.56 1012.64 1012.68 1012.68 1012.68
1010.92 1010.96 1010.88 1011.28 1011.56 1011.72 1011.60 1011.72 1011.72 1011.76 1011.92 1012.00 1012.04 1012.12 1012.28 1012.24 1012.28 1012.40 1012.40 1012.52 1012.72 1012.84 1012.92 1012.92 1012.96 1012.88 1012.92 1013.04 1013.00 1013.16 1013.32 1013.40 1013.28 1013.08 1012.72 1012.32 1012.16 1012.24 1012.40 1012.40 1012.36 1012.36
1011.36 1011.32 1011.52 1011.88 1011.88 1012.04 1012.00 1011.88 1011.88 1011.76 1011.76 1011.96 1012.12 1012.52 1012.60 1012.52 1012.68 1012.60 1012.44 1012.60 1012.80 1012.80 1012.80 1012.84 1012.84 1012.84 1013.04 1013.00 1012.96 1013.00 1013.08 1013.16 1013.16 1013.08 1012.88 1012.72 1012.40 1012.20 1012.08 1012.08 1012.08 1012.00
1011.60 1011.76 1011.84 1011.96 1012.04 1011.96 1011.92 1011.80 1011.84 1011.96 1012.16 1012.28 1012.44 1012.52 1012.68 1012.88 1012.72 1012.64 1012.48 1012.44 1012.60 1012.80 1012.88 1012.72 1012.68 1012.72 1012.80 1012.84 1012.84 1012.88 1012.84 1012.88 1012.88 1012.92 1012.88 1012.72 1012.60 1012.40 1012.16 1012.00 1011.96 1011.96
1011.88 1012.00 1012.04 1012.04 1011.96 1011.96 1011.96 1012.04 1012.24 1012.36 1012.28 1012.28 1012.36 1012.44 1012.64 1012.80 1012.72 1012.52 1012.28 1012.24 1012.40 1012.60 1012.64 1012.64 1012.64 1012.60 1012.68 1012.72 1012.76 1012.80 1012.80 1012.80 1012.72 1012.76 1012.72 1012.60 1012.52 1012.40 1012.24 1012.12 1012.08 1012.12
1012.12 1012.20 1012.20 1012.08 1012.04 1012.12 1012.20 1012.32 1012.36 1012.32 1012.48 1012.56 1012.56 1012.60 1012.60 1012.56 1012.60 1012.56 1012.36 1012.36 1012.40 1012.44 1012.48 1012.52 1012.64 1012.84 1012.84 1012.96 1012.92 1012.76 1012.68 1012.76 1012.84 1012.88 1012.76 1012.52 1012.36 1012.24 1012.20 1012.12 1012.08 1012.08
1012.36 1012.36 1012.32 1012.24 1012.20 1012.20 1012.20 1012.32 1012.44 1012.56 1012.64 1012.56 1012.48 1012.48 1012.48 1012.40 1012.52 1012.56 1012.64 1012.64 1012.60 1012.64 1012.68 1012.72 1013.56 1013.76 1013.64 1013.44 1013.36 1013.24 1013.04 1012.84 1012.80 1012.72 1012.60 1012.48 1012.24 1012.04 1011.96 1011.96 1011.96 1011.96
1012.72 1012.68 1012.60 1012.48 1012.48 1012.52 1012.60 1012.68 1012.68 1012.76 1012.76 1012.72 1012.80 1012.88 1012.92 1012.96 1013.16 1013.24 1013.20 1013.16 1013.28 1013.24 1013.04 1013.24 1014.12 1014.36 1014.08 1013.92 1013.76 1013.68 1013.12 1012.72 1012.56 1012.48 1012.44 1012.28 1012.12 1011.92 1011.92 1012.00 1012.00 1011.88
1012.92 1012.88 1012.84 1012.76 1012.72 1012.80 1012.76 1012.76 1012.76 1012.88 1013.08 1013.08 1013.24 1013.36 1013.40 1013.44 1013.44 1013.60 1013.60 1013.60 1013.72 1013.84 1013.84 1013.80 1014.24 1014.56 1014.52 1014.32 1014.08 1013.84 1013.56 1013.00 1012.52 1012.28 1012.12 1012.04 1011.88 1011.76 1011.72 1011.80 1011.76 1011.84
1013.16 1013.08 1013.04 1012.96 1013.00 1013.00 1012.96 1012.96 1012.96 1013.00 1013.12 1013.24 1013.36 1013.48 1013.64 1013.68 1013.72 1013.76 1013.84 1013.80 1013.92 1014.12 1014.16 1014.12 1014.24 1014.52 1014.68 1014.60 1014.40 1014.16 1013.76 1013.40 1013.00 1012.68 1012.44 1012.16 1011.96 1011.72 1011.64 1011.60 1011.56 1012.04
1013.40 1013.40 1013.36 1013.28 1013.16 1013.04 1013.04 1013.04 1013.00 1013.08 1013.20 1013.28 1013.40 1013.40 1013.52 1013.56 1013.68 1013.84 1013.88 1013.92 1013.92 1014.04 1014.24 1014.28 1014.20 1014.40 1014.72 1014.68 1014.52 1014.28 1014.00 1013.56 1013.20 1012.92 1012.80 1012.64 1012.44 1012.28 1012.12 1012.24 1012.48 1012.52
Thickness
5673 5673 5672 5671 5669 5669 5669 5667 5666 5664 5663 5660 5658 5656 5656 5656 5656 5656 5654 5652 5649 5646 5645 5644 5643 5642 5641 5642 5641 5641 5641 5641 5641 5641 5640 5639 5638 5637 5635 5634 5634 5632
5673 5674 5672 5670 5667 5667 5667 5667 5665 5664 5662 5661 5659 5658 5657 5656 5655 5655 5654 5651 5649 5647 5645 5643 5642 5641 5640 5640 5640 5638 5638 5638 5638 5638 5637 5636 5636 5635 5634 5633 5633 5631
5672 5672 5670 5668 5667 5665 5666 5667 5665 5664 5662 5661 5660 5658 5656 5655 5653 5654 5653 5651 5649 5647 5645 5643 5641 5640 5639 5639 5638 5636 5635 5634 5634 5634 5634 5634 5634 5633 5632 5631 5631 5630
5671 5671 5670 5669 5668 5667 5667 5667 5665 5664 5662 5660 5660 5658 5656 5655 5653 5652 5651 5650 5647 5646 5644 5643 5641 5640 5638 5638 5637 5635 5634 5633 5632 5632 5632 5631 5631 5631 5630 5629 5628 5628
5669 5668 5669 5669 5669 5668 5667 5667 5666 5665 5663 5660 5659 5658 5656 5654 5652 5651 5649 5648 5646 5644 5642 5642 5640 5639 5638 5637 5636 5634 5632 5631 5630 5630 5629 5628 5628 5628 5628 5627 5627 5626
5668 5668 5669 5668 5669 5668 5666 5667 5667 5666 5664 5662 5661 5659 5657 5655 5653 5650 5649 5647 5646 5643 5642 5641 5639 5639 5637 5636 5635 5633 5631 5629 5628 5628 5627 5626 5626 5625 5626 5625 5625 5624
5668 5670 5670 5669 5668 5669 5667 5666 5666 5666 5665 5664 5662 5659 5657 5654 5652 5650 5649 5646 5645 5643 5642 5640 5639 5638 5637 5635 5634 5632 5630 5629 5628 5627 5625 5625 5624 5623 5623 5623 5623 5623
5668 5669 5670 5668 5667 5667 5666 5666 5664 5664 5665 5662 5660 5658 5657 5654 5651 5650 5649 5646 5645 5642 5641 5640 5639 5638 5637 5635 5634 5631 5630 5629 5627 5626 5625 5624 5624 5622 5622 5621 5621 5621
5665 5666 5667 5664 5665 5665 5664 5663 5662 5662 5661 5659 5657 5656 5655 5654 5652 5651 5649 5647 5645 5642 5641 5639 5638 5637 5636 5635 5633 5631 5630 5628 5627 5626 5625 5624 5622 5621 5621 5621 5620 5619
5663 5665 5665 5663 5663 5662 5661 5659 5658 5658 5657 5655 5654 5653 5652 5651 5651 5650 5648 5646 5644 5642 5640 5638 5637 5636 5635 5634 5633 5631 5629 5628 5626 5625 5624 5623 5622 5621 5621 5620 5619 5619
5667 5667 5666 5663 5661 5660 5658 5657 5655 5655 5653 5652 5651 5650 5649 5648 5648 5647 5646 5644 5642 5640 5639 5639 5638 5636 5635 5633 5632 5631 5628 5627 5625 5624 5623 5622 5622 5621 5621 5620 5619 5619
5670 5669 5667 5664 5662 5660 5657 5655 5654 5652 5651 5650 5649 5647 5647 5646 5645 5644 5643 5642 5640 5638 5638 5639 5639 5638 5636 5634 5632 5629 5627 5625 5623 5621 5620 5620 5620 5620 5619 5619 5618 5618
5671 5669 5668 5664 5662 5660 5657 5655 5652 5650 5648 5648 5647 5646 5644 5643 5641 5640 5641 5641 5639 5638 5637 5638 5639 5637 5635 5633 5630 5626 5624 5622 5620 5618 5617 5616 5617 5617 5616 5616 5616 5615
5670 5669 5667 5664 5660 5658 5655 5653 5651 5649 5647 5647 5645 5644 5642 5641 5640 5639 5638 5636 5635 5635 5635 5635 5635 5632 5630 5627 5623 5619 5618 5619 5619 5616 5614 5614 5614 5614 5614 5613 5612 5612
5668 5667 5665 5662 5659 5656 5652 5650 5648 5648 5648 5647 5645 5643 5641 5640 5640 5638 5634 5631 5631 5631 5630 5630 5628 5626 5625 5622 5616 5612 5612 5613 5614 5614 5613 5612 5612 5612 5611 5611 5610 5609
5666 5665 5664 5660 5657 5654 5651 5649 5648 5647 5647 5645 5643 5640 5638 5637 5637 5635 5632 5630 5628 5627 5625 5624 5623 5622 5621 5618 5613 5610 5608 5608 5609 5610 5611 5612 5611 5609 5608 5608 5607 5606
5663 5662 5660 5656 5653 5651 5651 5650 5649 5647 5646 5644 5641 5638 5635 5635 5634 5632 5631 5629 5626 5624 5622 5621 5620 5619 5617 5614 5612 5610 5608 5607 5606 5606 5607 5609 5609 5607 5606 5605 5604 5603
5657 5656 5653 5650 5647 5647 5646 5646 5647 5645 5644 5641 5639 5635 5632 5631 5629 5628 5628 5626 5623 5621 5620 5618 5618 5616 5614 5612 5611 5609 5607 5605 5604 5603 5603 5604 5604 5605 5604 5603 5602 5601
5652 5650 5648 5645 5644 5643 5643 5643 5642 5640 5638 5636 5634 5631 5629 5626 5624 5625 5626 5625 5622 5619 5617 5616 5616 5614 5612 5610 5609 5608 5606 5604 5603 5602 5601 5601 5600 5601 5601 5600 5599 5597
5646 5645 5643 5641 5641 5640 5639 5638 5636 5635 5633 5631 5629 5627 5625 5622 5621 5623 5624 5623 5621 5618 5615 5614 5613 5611 5610 5608 5606 5605 5603 5602 5602 5600 5599 5599 5598 5597 5597 5597 5596 5594
5642 5640 5639 5638 5638 5637 5635 5633 5632 5630 5628 5626 5626 5624 5622 5621 5620 5619 5620 5619 5617 5615 5613 5611 5608 5605 5604 5603 5601 5600 5599 5598 5597 5595 5595 5596 5595 5594 5594 5593 5592 5591
5635 5635 5634 5634 5633 5632 5631 5629 5627 5625 5624 5623 5622 5620 5619 5619 5617 5614 5614 5612 5611 5609 5609 5606 5600 5597 5596 5596 5595 5594 5594 5594 5593 5592 5592 5592 5592 5592 5591 5590 5588 5587
5629 5629 5628 5628 5627 5626 5625 5623 5622 5620 5619 5618 5616 5614 5613 5612 5609 5607 5606 5605 5603 5601 5601 5599 5592 5589 5589 5589 5589 5588 5590 5591 5591 5591 5590 5590 5590 5590 5589 5587 5585 5584
5624 5624 5623 5623 5622 5620 5619 5618 5617 5615 5613 5611 5609 5607 5605 5604 5601 5600 5599 5597 5595 5593 5592 5591 5587 5584 5583 5584 5584 5584 5584 5586 5588 5588 5587 5587 5587 5587 5586 5584 5582 5580
5620 5619 5619 5618 5617 5615 5615 5613 5612 5611 5608 5607 5604 5602 5600 5598 5597 5595 5593 5592 5590 5587 5586 5585 5582 5580 5578 5578 5578 5578 5579 5581 5582 5583 5583 5583 5583 5583 5582 5580 5578 5575
5616 5614 5613 5614 5612 5612 5612 5610 5609 5607 5605 5602 5601 5599 5597 5595 5593 5591 5589 5588 5587 5584 5582 5580 5579 5577 5574 5573 5574 5574 5575 5576 5577 5576 5575 5575 5576 5576 5575 5572 5569 5567